Sunshine Coast Airport Observation History
Time Wind Speed Temp Pressure Rel. Hum Rain
29/09:00am NNW 9-14 kts 26.6°c 1014.3 hPa 56% 0.0mm
29/08:30am NW 11-15 kts 26.2°c 1014.6 hPa 60% 0.0mm
29/08:00am NNW 12-17 kts 25.5°c 1014.7 hPa 63% 0.0mm
29/07:30am NW 11-14 kts 24.8°c 1014.7 hPa 68% 0.0mm
29/07:00am NNW 8-11 kts 23.6°c 1014.5 hPa 74% 0.0mm
29/06:30am NW 7-9 kts 21.6°c 1014.4 hPa 81% 0.0mm
29/06:00am WNW 5-6 kts 19.3°c 1014.2 hPa 89% 0.0mm
29/05:30am WNW 7 kts 17.9°c 1014.1 hPa 93% 0.0mm
29/05:00am NW 7-8 kts 17.1°c 1013.9 hPa 93% 0.0mm
29/04:30am NW 7-8 kts 16.7°c 1013.6 hPa 93% 0.0mm
29/04:00am NW 6-7 kts 16.9°c 1013.5 hPa 93% 0.0mm
29/03:30am NW 6-7 kts 16.8°c 1013.3 hPa 93% 0.0mm
29/03:00am NW 6-7 kts 16.8°c 1013.4 hPa 92% 0.0mm
29/02:30am NW 6-7 kts 17.1°c 1013.4 hPa 92% 0.0mm
29/02:00am NW 7-8 kts 17.1°c 1013.5 hPa 92% 0.0mm
29/01:30am NW 6-7 kts 16.9°c 1013.7 hPa 91% 0.0mm
29/01:00am NW 5-6 kts 17.4°c 1014.1 hPa 92% 0.0mm
29/12:30am NW 7-8 kts 17.0°c 1014.5 hPa 91% 0.0mm
29/12:00am WNW 5-6 kts 18.1°c 1015.0 hPa 89% 0.0mm
Time Wind Speed Temp Pressure Rel. Hum Rain
28/11:30pm NNW 6-7 kts 17.9°c 1015.0 hPa 90% 0.0mm
28/11:00pm NNW 5-7 kts 17.9°c 1015.3 hPa 89% 0.0mm
28/10:30pm NW 6-7 kts 18.2°c 1015.4 hPa 89% 0.0mm
28/10:00pm NW 6-7 kts 18.7°c 1015.3 hPa 87% 0.0mm
28/09:30pm NW 6-7 kts 19.1°c 1015.3 hPa 85% 0.0mm
28/09:00pm NNW 7-8 kts 20.0°c 1015.0 hPa 82% 0.0mm
28/08:30pm N 9-11 kts 21.6°c 1015.0 hPa 76% 0.0mm
28/08:00pm N 7-9 kts 21.5°c 1015.0 hPa 76% 0.0mm
28/07:30pm N 9-13 kts 22.6°c 1014.9 hPa 73% 0.0mm
28/07:00pm N 10-16 kts 22.7°c 1014.8 hPa 71% 0.0mm
28/06:30pm NNE 11-15 kts 23.2°c 1014.5 hPa 69% 0.0mm
28/06:00pm NNE 13-17 kts 23.8°c 1014.1 hPa 67% 0.0mm
28/05:30pm NNE 14-17 kts 24.3°c 1014.0 hPa 64% 0.0mm
28/05:00pm NNE 14-16 kts 24.9°c 1013.8 hPa 63% 0.0mm
28/04:30pm NNE 14-17 kts 25.4°c 1013.9 hPa 59% 0.0mm
28/04:00pm NE 13-16 kts 25.8°c 1014.1 hPa 56% 0.0mm
28/03:30pm NE 13-16 kts 26.2°c 1014.0 hPa 57% 0.0mm
28/03:00pm NE 12-15 kts 26.6°c 1014.2 hPa 55% 0.0mm
28/02:30pm NE 12-15 kts 26.4°c 1014.5 hPa 55% 0.0mm
28/02:00pm ENE 11-14 kts 26.6°c 1014.6 hPa 55% 0.0mm
28/01:30pm NE 12-14 kts 26.9°c 1014.9 hPa 53% 0.0mm
28/01:00pm NE 11-14 kts 27.0°c 1015.1 hPa 54% 0.0mm
28/12:30pm NE 10-13 kts 26.8°c 1015.4 hPa 54% 0.0mm
28/12:00pm NE 10-13 kts 26.5°c 1015.8 hPa 53% 0.0mm
28/11:30am ENE 10-12 kts 26.2°c 1016.3 hPa 57% 0.0mm
28/11:00am ENE 9-12 kts 26.9°c 1016.5 hPa 57% 0.0mm
28/10:30am ENE 9-11 kts 27.2°c 1016.9 hPa 56% 0.0mm
28/10:00am NE 7-10 kts 26.3°c 1017.1 hPa 54% 0.0mm
28/09:30am NE 7-9 kts 26.2°c 1017.3 hPa 56% 0.0mm
28/09:00am NE 7-10 kts 26.2°c 1017.5 hPa 54% 0.0mm
28/08:30am NE 7-9 kts 25.4°c 1017.5 hPa 56% 0.0mm
28/08:00am ENE 6-9 kts 25.6°c 1017.5 hPa 59% 0.0mm
28/07:30am NE 7-9 kts 24.8°c 1017.4 hPa 58% 0.0mm
28/07:00am NW 3-5 kts 24.1°c 1017.2 hPa 66% 0.0mm
28/06:30am WSW 4-5 kts 21.9°c 1017.0 hPa 74% 0.0mm
28/06:00am W 4-5 kts 19.9°c 1016.7 hPa 84% 0.0mm
28/05:30am W 3-6 kts 18.3°c 1016.6 hPa 91% 0.0mm
28/05:00am WSW 3-4 kts 17.4°c 1016.3 hPa 91% 0.0mm
28/04:30am WSW 3-5 kts 17.6°c 1016.3 hPa 91% 0.0mm
28/04:00am WSW 4-5 kts 17.6°c 1016.1 hPa 88% 0.0mm
28/03:30am WSW 4-6 kts 18.1°c 1016.1 hPa 90% 0.0mm
28/03:00am W 4-6 kts 18.2°c 1016.0 hPa 89% 0.0mm
28/02:30am WSW 1-5 kts 18.1°c 1015.9 hPa 87% 0.0mm
28/02:00am WNW 3-5 kts 18.8°c 1016.0 hPa 84% 0.0mm
28/01:30am ENE 5-8 kts 20.8°c 1016.4 hPa 72% 0.0mm
28/01:00am E 7-10 kts 22.7°c 1016.8 hPa 69% 0.0mm
28/12:30am E 7-10 kts 22.6°c 1017.1 hPa 68% 0.0mm
28/12:00am E 6-8 kts 22.7°c 1017.3 hPa 68% 0.0mm
Time Wind Speed Temp Pressure Rel. Hum Rain
27/11:30pm E 8-11 kts 22.8°c 1017.5 hPa 68% 0.0mm
27/11:00pm E 9-11 kts 23.1°c 1017.8 hPa 69% 0.0mm
27/10:30pm E 9-12 kts 23.1°c 1017.9 hPa 68% 0.0mm
27/10:00pm E 7-10 kts 23.3°c 1018.2 hPa 70% 0.0mm
27/09:30pm E 8-11 kts 23.2°c 1018.1 hPa 69% 0.0mm
27/09:00pm E 9-10 kts 23.4°c 1018.0 hPa 68% 0.0mm
27/08:30pm E 9-11 kts 23.2°c 1017.8 hPa 67% 0.0mm
27/08:00pm E 8-11 kts 23.3°c 1017.7 hPa 65% 0.0mm
27/07:30pm E 7-9 kts 23.3°c 1017.6 hPa 66% 0.0mm
27/07:00pm E 7-9 kts 23.5°c 1017.4 hPa 64% 0.0mm
27/06:30pm E 8-10 kts 23.6°c 1017.1 hPa 62% 0.0mm
27/06:00pm E 7-11 kts 24.1°c 1016.7 hPa 62% 0.0mm
27/05:30pm E 9-11 kts 24.2°c 1016.6 hPa 59% 0.0mm
27/05:00pm E 10-13 kts 25.1°c 1016.3 hPa 59% 0.0mm
27/04:30pm E 11-13 kts 25.6°c 1016.2 hPa 58% 0.0mm
27/04:00pm E 11-14 kts 26.1°c 1016.1 hPa 59% 0.0mm
27/03:30pm E 11-14 kts 26.2°c 1015.8 hPa 58% 0.0mm
27/03:00pm E 11-15 kts 26.9°c 1015.9 hPa 57% 0.0mm
27/02:30pm E 11-14 kts 26.6°c 1016.0 hPa 57% 0.0mm
27/02:00pm E 9-12 kts 27.2°c 1016.3 hPa 59% 0.0mm
27/01:30pm ESE 9-12 kts 27.2°c 1016.5 hPa 56% 0.0mm
27/01:00pm ESE 9-13 kts 27.6°c 1016.7 hPa 59% 0.0mm
27/12:30pm E 9-12 kts 27.4°c 1016.9 hPa 58% 0.0mm
27/12:00pm E 8-12 kts 26.9°c 1017.1 hPa 57% 0.0mm
27/11:30am ESE 10-12 kts 25.9°c 1017.5 hPa 61% 0.0mm
27/11:00am SE 11-14 kts 26.8°c 1017.7 hPa 64% 0.0mm
27/10:30am ESE 10-13 kts 26.2°c 1017.9 hPa 63% 0.0mm
27/10:00am SE 9-13 kts 26.3°c 1018.1 hPa 63% 0.0mm
27/09:30am SE 9-11 kts 26.1°c 1017.9 hPa 65% 0.0mm
27/09:00am ESE 7-9 kts 26.0°c 1017.6 hPa 65% 0.0mm
27/08:30am SE 7-9 kts 25.5°c 1017.3 hPa 67% 0.0mm
27/08:00am SE 7-9 kts 25.1°c 1017.0 hPa 69% 0.0mm
27/07:30am SE 7-10 kts 24.9°c 1017.1 hPa 70% 0.0mm
27/07:00am SSW 3-5 kts 23.9°c 1016.7 hPa 74% 0.0mm
27/06:30am WSW 4-5 kts 21.5°c 1016.2 hPa 83% 0.0mm
27/06:00am WSW 3-4 kts 19.6°c 1015.7 hPa 90% 0.0mm
27/05:30am W 3-4 kts 18.7°c 1015.4 hPa 95% 0.0mm
27/05:00am W 3 kts 17.8°c 1014.9 hPa 94% 0.0mm
27/04:30am W 2-3 kts 17.6°c 1014.6 hPa 93% 0.0mm
27/04:00am SW 4-5 kts 18.2°c 1014.4 hPa 93% 0.0mm
27/03:30am SW 4-5 kts 18.4°c 1014.1 hPa 93% 0.0mm
27/03:00am WSW 4-5 kts 18.2°c 1013.8 hPa 93% 0.0mm
27/02:30am W 3-4 kts 18.5°c 1013.7 hPa 92% 0.0mm
27/02:00am W 3-4 kts 18.7°c 1013.7 hPa 92% 0.0mm
27/01:30am WNW 4 kts 18.8°c 1013.9 hPa 91% 0.0mm
27/01:00am W 3-4 kts 19.5°c 1014.3 hPa 90% 0.0mm
27/12:30am W 4-6 kts 19.7°c 1014.3 hPa 89% 0.0mm
27/12:00am NW 2-4 kts 20.5°c 1014.5 hPa 84% 0.0mm